Weather in Podkurovka

Russia / Ulyanovsk Oblast     53°57′03″N   48°14′42″E
temp.,
°C
wind,
m/s
gust,
m/s
humid.,
%
clouds,
%
prec.,
mm/h
press.,
hPa
HPBL,
m
15 may, sat
sat1501:00+19s41063100 0.0 1019175
04:00+19s6154946 0.0 1019276
07:00+19s5135270 0.0 1019276
10:00+25s7123557 0.0 1019579
13:00+28s8112693 0.0 10191047
16:00+28ssw71130100 0.0 10181403
19:00+25s5123887 0.0 1018418
22:00+21s413435 0.0 1018250
16 may, sun
sun1601:00+19s5144450 0.0 1018255
04:00+18s5134642 0.0 1018225
07:00+19s512525 0.0 1018260
10:00+25s69385 0.0 1018540
13:00+28ssw7112744 0.0 10182096
16:00+28ssw6832100 0.0 10172174
19:00+24ssw3647100 0.0 1017164
22:00+20ssw2250100 0.0 101714
17 may, mon
mon1701:00+19s3350100 0.0 101825
04:00+17s115096 0.0 101811
07:00+19s2657100 0.0 1019148
10:00+25ssw244198 0.1 1019386
13:00+29s553064 0.0 10182024
16:00+29ssw562984 0.0 10183043
19:00+25ssw224594 0.0 101822
22:00+19se3757100 0.0 1018111
18 may, tue
tue1801:00+22se5114175 0.0 1018235
04:00+18sse385855 0.0 1018133
07:00+20sse3957100 0.0 1018226
10:00+26sse473475 0.0 1017524
13:00+29sse682581 0.0 10162473
16:00+29s4629100 0.0 10161945
19:00+25se2344100 0.0 101642
22:00+22se3538100 0.0 101669
19 may, wed
wed1901:00+20se3535100 0.0 101664
04:00+19sse36405 0.0 101680
07:00+21sse31145100 0.0 1016234
10:00+27sse61133100 0.0 1015707
13:00+29sse7102861 0.0 10152401
16:00+29ssw51132100 0.0 10142799
19:00+24sse225162 0.0 101447
22:00+21s354599 0.0 101585